SCP
0 0 0 0 0 -0 -0 -0 -0 -0 0 0 0 0 0 0 0 0 0 0 0 1 -0 0 0 1 0 1 1 2 1 1
0 0 0 0 0 -0 -0 -0 -0 0 0 0 0 0 0 0 0 0 0 0 1 1 1 1 2 1 1 3 5 3 3 4
0 0 0 0 0 0 0 0 -0 0 0 0 0 0 0 0 0 0 0 0 0 1 2 0 0 0 0 0 1 4 4 2
0 0 0 0 0 0 0 -0 0 0 0 0 0 0 0 0 0 0 0 0 0 1 0 0 0 0 0 0 0 0 0 0
-0 0 0 0 0 0 0 0 0 0 0 0 0 0 0 0 0 0 0 0 0 0 0 0 0 0 0 0 0 0 0 0
0 -0 0 0 0 0 0 0 0 0 0 0 0 0 0 0 0 0 0 0 0 0 0 0 0 0 0 -0 0 -0 0 0
0 0 0 0 0 0 0 0 0 0 0 0 0 0 0 0 0 0 1 1 0 0 0 0 0 0 0 0 0 -0 0 -0
0 0 0 0 0 0 0 0 0 0 0 0 0 0 0 0 0 1 1 1 2 1 0 0 1 1 1 0 0 0 0 0
0 0 0 0 0 0 0 0 0 0 0 0 0 0 0 0 0 2 2 1 1 1 2 0 0 0 0 0 0 0 0 0
0 0 0 -0 -0 -0 0 0 0 0 0 0 0 0 0 0 3 3 1 1 1 0 0 0 0 0 0 0 0 0 0 0
0 0 0 0 0 -0 0 0 0 0 0 0 0 1 3 3 2 2 1 0 0 0 0 0 0 0 0 0 0 0 0 0
0 0 0 0 0 0 0 0 0 0 0 0 1 3 3 2 1 1 1 0 0 0 0 0 0 0 0 0 0 0 0 0
0 0 0 0 0 0 0 0 0 0 0 1 1 2 2 1 1 0 0 0 0 0 0 0 0 0 0 0 0 0 0 0
0 0 0 0 0 0 0 0 1 0 1 2 2 1 1 0 0 0 0 0 0 0 0 0 0 0 0 0 0 0 0 0
0 0 0 0 0 1 0 1 2 1 1 1 1 1 0 0 0 0 0 0 0 0 0 0 0 0 0 0 0 0 0 0
0 0 0 0 1 1 1 2 2 1 1 1 1 0 0 0 0 0 0 0 0 0 0 0 0 0 0 0 0 0 0 0
2 2 2 2 2 2 2 2 2 1 1 1 0 0 0 0 0 0 0 0 0 0 0 0 0 0 0 0 0 0 0 0
3 1 2 2 1 1 2 1 2 1 1 0 0 0 0 0 0 0 0 0 0 0 0 0 0 0 0 0 0 0 0 0
1 1 2 1 2 2 1 2 1 1 0 0 0 0 0 0 0 0 0 0 0 0 0 0 0 0 0 0 0 0 0 0
Wind_Speed_500mb
12 11 15 15 10 15 5 11 6 3 14 11 18 17 23 24 32 57 84 86 100 94 85 73 72 75 81 74 64 61 53 50
18 19 21 18 16 2 5 8 10 7 10 11 14 14 14 13 6 3 69 82 92 100 92 72 71 70 73 72 61 61 52 43
13 20 20 10 4 6 9 9 8 5 11 5 15 14 16 15 8 30 45 23 89 83 45 37 30 24 61 29 40 62 44 14
23 17 27 21 19 15 10 17 3 12 12 15 19 19 25 24 20 29 32 38 37 45 50 60 55 60 41 31 61 50 3 36
21 8 15 26 17 13 10 5 8 5 8 5 23 25 33 39 36 31 24 33 35 41 61 49 55 40 43 72 81 76 41 44
18 14 14 14 16 13 14 6 10 9 16 18 17 20 23 28 29 29 36 45 56 51 56 52 37 51 56 63 48 84 30 26
18 25 19 17 32 24 19 16 14 16 22 13 18 20 30 27 27 34 48 45 50 54 50 37 23 20 2 25 32 39 25 21
11 25 23 26 24 42 34 18 9 32 26 26 46 49 37 26 30 57 58 53 45 50 48 25 27 33 38 37 30 17 15 13
12 16 12 20 18 14 23 20 17 13 15 25 18 26 37 32 42 62 64 62 62 53 49 47 42 32 22 14 10 12 9 6
10 7 17 15 12 17 27 33 14 33 24 28 38 42 34 29 54 63 72 72 66 61 48 37 28 18 11 7 8 12 18 24
11 11 10 19 33 10 7 4 49 43 38 48 63 60 45 46 48 53 52 56 55 44 34 24 19 15 8 6 1 6 13 24
8 13 27 21 20 41 8 8 29 53 42 58 57 15 9 57 57 55 46 35 30 21 19 15 14 10 10 14 21 27 33 37
9 9 13 8 2 12 15 17 48 72 71 64 14 37 67 62 56 49 43 34 19 11 8 4 10 17 22 26 29 33 37 39
6 11 14 9 10 10 14 60 66 66 67 63 85 83 71 59 55 47 37 26 18 13 6 3 11 17 21 25 29 33 35 33
10 16 8 9 40 63 87 80 63 91 87 95 77 77 68 58 55 49 39 33 24 14 8 6 16 20 23 30 34 36 36 33
10 2 14 53 49 71 80 86 83 89 97 92 87 75 70 61 52 43 32 26 19 9 1 7 15 23 28 31 34 40 35 26
9 17 31 27 51 66 77 77 82 82 83 90 85 74 68 60 51 39 25 14 9 8 7 8 13 17 23 33 42 37 26 27
9 24 38 24 55 82 84 83 80 92 82 78 80 77 64 50 37 27 23 20 14 8 6 6 12 22 29 33 26 26 26 26
21 46 59 52 49 61 78 84 85 87 84 78 65 63 51 42 32 26 19 13 7 3 7 6 11 23 29 36 38 26 23 25
Wind_Direction_500mb
181 172 201 257 189 214 312 296 11 257 20 27 123 149 146 129 172 184 180 185 190 196 200 203 207 211 221 227 231 236 236 233
205 207 241 152 203 268 326 246 283 232 142 200 136 121 109 93 59 17 190 190 190 198 201 205 209 207 216 229 232 238 237 239
220 195 187 275 248 245 164 153 183 88 288 135 109 117 115 85 124 65 50 226 192 197 194 165 167 193 217 221 245 244 231 246
234 227 176 185 221 190 134 284 251 157 230 155 129 115 99 94 67 47 41 53 130 148 161 190 199 203 206 231 282 275 69 265
301 316 187 192 209 199 167 101 254 149 236 158 111 89 88 84 78 68 65 81 107 154 164 164 186 197 276 301 301 270 257 207
223 210 179 171 207 222 178 174 237 191 165 165 134 119 101 87 79 69 97 105 119 139 164 183 209 232 298 310 278 232 195 166
233 245 263 214 197 206 217 211 162 225 167 164 149 132 123 109 92 72 102 115 131 143 153 174 213 274 359 107 128 162 111 102
261 253 247 261 227 203 212 230 207 134 139 152 139 125 115 109 95 91 99 110 121 128 141 135 109 124 106 105 119 112 76 95
226 259 287 287 247 248 206 209 196 169 178 131 118 121 133 135 108 109 112 109 111 111 117 124 122 124 123 112 92 66 47 338
187 170 251 254 277 283 209 194 130 107 112 103 108 97 95 98 120 114 115 119 121 124 127 131 140 140 134 101 36 340 327 324
139 189 260 263 260 281 231 209 131 121 118 113 113 99 72 126 130 128 126 121 121 129 133 140 130 118 104 64 325 282 303 319
140 185 217 244 261 251 163 102 152 134 135 134 127 113 155 127 130 124 125 127 130 126 120 111 90 69 25 353 339 332 334 337
195 185 244 243 300 214 144 206 157 144 144 143 127 142 136 133 127 126 120 118 124 117 91 37 357 357 346 338 331 331 331 327
162 183 264 194 158 166 164 133 136 136 144 128 128 133 135 134 128 123 119 119 117 129 126 327 327 327 327 319 319 320 326 328
151 224 262 192 136 134 131 134 135 140 139 134 130 133 136 130 127 127 131 126 131 142 170 267 299 315 329 325 323 330 329 334
90 322 123 118 123 128 136 136 138 138 137 140 135 136 132 131 135 138 143 154 165 181 272 290 318 329 324 322 327 329 328 339
71 55 92 91 121 122 131 131 130 131 134 136 137 135 138 140 140 143 151 147 161 179 201 280 322 315 318 318 320 322 341 346
161 148 106 105 115 126 127 129 133 133 132 139 141 140 142 135 146 154 149 163 188 228 297 326 310 310 320 320 334 354 356 358
154 114 111 112 106 122 123 126 130 135 137 137 139 143 146 146 153 160 164 177 206 15 76 20 317 328 357 11 7 15 6 2
Wind_Speed_850mb
12 11 15 15 10 15 5 11 6 3 14 11 18 17 23 24 32 57 84 86 100 94 85 73 72 75 81 74 64 61 53 50
18 19 21 18 16 2 5 8 10 7 10 11 14 14 14 13 6 3 69 82 92 100 92 72 71 70 73 72 61 61 52 43
13 20 20 10 4 6 9 9 8 5 11 5 15 14 16 15 8 30 45 23 89 83 45 37 30 24 61 29 40 62 44 14
23 17 27 21 19 15 10 17 3 12 12 15 19 19 25 24 20 29 32 38 37 45 50 60 55 60 41 31 61 50 3 36
21 8 15 26 17 13 10 5 8 5 8 5 23 25 33 39 36 31 24 33 35 41 61 49 55 40 43 72 81 76 41 44
18 14 14 14 16 13 14 6 10 9 16 18 17 20 23 28 29 29 36 45 56 51 56 52 37 51 56 63 48 84 30 26
18 25 19 17 32 24 19 16 14 16 22 13 18 20 30 27 27 34 48 45 50 54 50 37 23 20 2 25 32 39 25 21
11 25 23 26 24 42 34 18 9 32 26 26 46 49 37 26 30 57 58 53 45 50 48 25 27 33 38 37 30 17 15 13
12 16 12 20 18 14 23 20 17 13 15 25 18 26 37 32 42 62 64 62 62 53 49 47 42 32 22 14 10 12 9 6
10 7 17 15 12 17 27 33 14 33 24 28 38 42 34 29 54 63 72 72 66 61 48 37 28 18 11 7 8 12 18 24
11 11 10 19 33 10 7 4 49 43 38 48 63 60 45 46 48 53 52 56 55 44 34 24 19 15 8 6 1 6 13 24
8 13 27 21 20 41 8 8 29 53 42 58 57 15 9 57 57 55 46 35 30 21 19 15 14 10 10 14 21 27 33 37
9 9 13 8 2 12 15 17 48 72 71 64 14 37 67 62 56 49 43 34 19 11 8 4 10 17 22 26 29 33 37 39
6 11 14 9 10 10 14 60 66 66 67 63 85 83 71 59 55 47 37 26 18 13 6 3 11 17 21 25 29 33 35 33
10 16 8 9 40 63 87 80 63 91 87 95 77 77 68 58 55 49 39 33 24 14 8 6 16 20 23 30 34 36 36 33
10 2 14 53 49 71 80 86 83 89 97 92 87 75 70 61 52 43 32 26 19 9 1 7 15 23 28 31 34 40 35 26
9 17 31 27 51 66 77 77 82 82 83 90 85 74 68 60 51 39 25 14 9 8 7 8 13 17 23 33 42 37 26 27
9 24 38 24 55 82 84 83 80 92 82 78 80 77 64 50 37 27 23 20 14 8 6 6 12 22 29 33 26 26 26 26
21 46 59 52 49 61 78 84 85 87 84 78 65 63 51 42 32 26 19 13 7 3 7 6 11 23 29 36 38 26 23 25
Wind_Direction_850mb
181 172 201 257 189 214 312 296 11 257 20 27 123 149 146 129 172 184 180 185 190 196 200 203 207 211 221 227 231 236 236 233
205 207 241 152 203 268 326 246 283 232 142 200 136 121 109 93 59 17 190 190 190 198 201 205 209 207 216 229 232 238 237 239
220 195 187 275 248 245 164 153 183 88 288 135 109 117 115 85 124 65 50 226 192 197 194 165 167 193 217 221 245 244 231 246
234 227 176 185 221 190 134 284 251 157 230 155 129 115 99 94 67 47 41 53 130 148 161 190 199 203 206 231 282 275 69 265
301 316 187 192 209 199 167 101 254 149 236 158 111 89 88 84 78 68 65 81 107 154 164 164 186 197 276 301 301 270 257 207
223 210 179 171 207 222 178 174 237 191 165 165 134 119 101 87 79 69 97 105 119 139 164 183 209 232 298 310 278 232 195 166
233 245 263 214 197 206 217 211 162 225 167 164 149 132 123 109 92 72 102 115 131 143 153 174 213 274 359 107 128 162 111 102
261 253 247 261 227 203 212 230 207 134 139 152 139 125 115 109 95 91 99 110 121 128 141 135 109 124 106 105 119 112 76 95
226 259 287 287 247 248 206 209 196 169 178 131 118 121 133 135 108 109 112 109 111 111 117 124 122 124 123 112 92 66 47 338
187 170 251 254 277 283 209 194 130 107 112 103 108 97 95 98 120 114 115 119 121 124 127 131 140 140 134 101 36 340 327 324
139 189 260 263 260 281 231 209 131 121 118 113 113 99 72 126 130 128 126 121 121 129 133 140 130 118 104 64 325 282 303 319
140 185 217 244 261 251 163 102 152 134 135 134 127 113 155 127 130 124 125 127 130 126 120 111 90 69 25 353 339 332 334 337
195 185 244 243 300 214 144 206 157 144 144 143 127 142 136 133 127 126 120 118 124 117 91 37 357 357 346 338 331 331 331 327
162 183 264 194 158 166 164 133 136 136 144 128 128 133 135 134 128 123 119 119 117 129 126 327 327 327 327 319 319 320 326 328
151 224 262 192 136 134 131 134 135 140 139 134 130 133 136 130 127 127 131 126 131 142 170 267 299 315 329 325 323 330 329 334
90 322 123 118 123 128 136 136 138 138 137 140 135 136 132 131 135 138 143 154 165 181 272 290 318 329 324 322 327 329 328 339
71 55 92 91 121 122 131 131 130 131 134 136 137 135 138 140 140 143 151 147 161 179 201 280 322 315 318 318 320 322 341 346
161 148 106 105 115 126 127 129 133 133 132 139 141 140 142 135 146 154 149 163 188 228 297 326 310 310 320 320 334 354 356 358
154 114 111 112 106 122 123 126 130 135 137 137 139 143 146 146 153 160 164 177 206 15 76 20 317 328 357 11 7 15 6 2